HA8LNU Weather Reports


time (UTC)temp
C
wind
direction
speed
KPH
gust
KPH
rain 1hr
cm
rain 24hr
cm
rain mn
cm
humidity
%
barometer
mb
20260507065516 16 0.0 0.0 0.00 0.00 0.00 81 1015.3
20260507064030 16 0.0 1.6 0.00 0.00 0.00 79 1015.3
20260507063027 16 0.0 1.6 0.00 0.00 0.00 77 1015.3
20260507062026 16 0.0 1.6 0.00 0.00 0.00 74 1015.2
20260507061023 17 225 0.0 3.2 0.00 0.00 0.00 72 1015.1
20260507060042 17 0.0 3.2 0.00 0.00 0.00 71 1015.0
20260507055019 17 180 0.0 3.2 0.00 0.00 0.00 70 1014.9
20260507054017 17 225 0.0 3.2 0.00 0.00 0.00 71 1014.6
20260507053015 16 0.0 1.6 0.00 0.00 0.00 71 1014.6
20260507052133 16 0.0 0.0 0.00 0.00 0.00 72 1014.5
20260507051111 16 0.0 0.0 0.00 0.00 0.00 72 1014.4
20260507050108 15 0.0 1.6 0.00 0.00 0.00 72 1014.4
20260507045106 15 0.0 3.2 0.00 0.00 0.00 73 1014.4
20260507044104 15 0.0 0.0 0.00 0.00 0.00 74 1014.2
20260507043103 15 0.0 0.0 0.00 0.00 0.00 75 1014.1
20260507042100 15 0.0 0.0 0.00 0.00 0.00 74 1013.9
20260507041058 15 0.0 0.0 0.00 0.00 0.00 74 1013.6
20260507040056 14 0.0 0.0 0.00 0.00 0.00 74 1013.6
20260507035054 14 0.0 0.0 0.00 0.00 0.00 73 1013.6
20260507034052 14 0.0 1.6 0.00 0.00 0.00 74 1013.8
20260507033050 14 0.0 1.6 0.00 0.00 0.00 74 1013.8
20260507032048 14 0.0 0.0 0.00 0.00 0.00 74 1013.6
20260507031046 14 0.0 3.2 0.00 0.00 0.00 74 1013.6
20260507030043 14 0.0 0.0 0.00 0.00 0.00 74 1013.3
20260507025041 14 0.0 0.0 0.00 0.00 0.00 73 1012.9
20260507024039 15 0.0 0.0 0.00 0.00 0.00 73 1012.8
20260507023037 15 0.0 0.0 0.00 0.00 0.00 72 1012.9
20260507022115 15 0.0 0.0 0.00 0.00 0.00 72 1013.0
20260507021113 15 0.0 0.0 0.00 0.00 0.00 72 1012.9
20260507020031 15 0.0 0.0 0.00 0.00 0.00 71 1012.7
20260507015029 15 0.0 0.0 0.00 0.00 0.00 70 1012.8
20260507014026 15 0.0 0.0 0.00 0.00 0.00 70 1012.9
20260507013024 15 0.0 0.0 0.00 0.00 0.00 69 1012.9
20260507012022 15 0.0 0.0 0.00 0.00 0.00 68 1012.5
20260507010018 15 0.0 0.0 0.00 0.00 0.00 66 1012.5
20260507005016 15 0.0 0.0 0.00 0.00 0.00 64 1012.6
20260507004114 16 0.0 0.0 0.00 0.00 0.00 63 1012.7
20260507003112 16 315 0.0 3.2 0.00 0.00 0.00 63 1012.9
20260507002109 15 187 1.6 6.4 0.00 0.00 0.00 63 1013.0
20260507001108 15 173 1.6 3.2 0.00 0.00 0.00 64 1013.0
20260507000105 14 219 1.6 3.2 0.00 0.00 0.00 65 1013.1
20260506235103 14 270 0.0 3.2 0.00 0.00 0.00 66 1013.0
20260506234101 13 210 0.0 3.2 0.00 0.00 0.00 68 1013.1
20260506233059 13 243 1.6 6.4 0.00 0.00 0.00 68 1012.8
20260506232057 13 0.0 1.6 0.00 0.00 0.00 67 1012.4
20260506231055 13 0.0 1.6 0.00 0.00 0.00 68 1012.2
20260506230053 13 225 0.0 3.2 0.00 0.00 0.00 70 1012.2
20260506225051 13 0.0 1.6 0.00 0.00 0.00 70 1012.1
20260506224049 12 0.0 3.2 0.00 0.00 0.00 71 1012.2
20260506223047 12 180 0.0 3.2 0.00 0.00 0.00 71 1012.2
20260506222045 12 0.0 0.0 0.00 0.00 0.00 71 1012.2
20260506221042 12 0.0 0.0 0.00 0.00 0.00 71 1012.3
20260506220040 12 0.0 0.0 0.00 0.00 0.00 70 1012.3
20260506215038 13 0.0 0.0 0.00 0.00 0.00 70 1012.2
20260506214036 13 0.0 0.0 0.00 0.00 0.00 69 1012.2
20260506213054 13 0.0 0.0 0.00 0.00 0.00 68 1012.3
20260506212031 13 0.0 0.0 0.00 0.00 0.00 67 1012.3
20260506211029 13 0.0 0.0 0.00 0.00 0.00 66 1012.1
20260506210027 14 0.0 0.0 0.00 0.00 0.00 65 1012.2
20260506205025 15 0.0 0.0 0.00 0.00 0.00 64 1012.2
20260506204103 15 0.0 0.0 0.00 0.00 0.00 63 1012.1
20260506203021 15 0.0 3.2 0.00 0.00 0.00 63 1012.2
20260506202019 15 0.0 1.6 0.00 0.00 0.00 62 1012.1
20260506201017 16 0.0 1.6 0.00 0.00 0.00 61 1012.1
20260506200015 16 0.0 0.0 0.00 0.00 0.00 61 1012.0
20260506195113 16 0.0 1.6 0.00 0.00 0.00 62 1012.1
20260506194111 16 0.0 1.6 0.00 0.00 0.00 62 1012.0
20260506193109 16 0.0 3.2 0.00 0.00 0.00 63 1012.0
20260506192106 16 0.0 0.0 0.00 0.00 0.00 63 1012.0
20260506191124 16 0.0 0.0 0.00 0.00 0.00 62 1012.1
20260506185100 17 0.0 0.0 0.00 0.00 0.00 61 1011.9
20260506184058 17 0.0 0.0 0.00 0.00 0.00 56 1011.9
20260506183056 18 0.0 0.0 0.00 0.00 0.00 54 1011.8
20260506182114 18 0.0 0.0 0.00 0.00 0.00 53 1011.5
20260506181052 19 0.0 0.0 0.00 0.00 0.00 52 1011.7
20260506180049 20 0.0 0.0 0.00 0.00 0.00 51 1011.6
20260506175047 20 0.0 0.0 0.00 0.00 0.00 50 1011.5
20260506174105 21 0.0 0.0 0.00 0.00 0.00 45 1011.5
20260506173043 22 0.0 0.0 0.00 0.00 0.00 44 1011.5
20260506172041 22 0.0 0.0 0.00 0.00 0.00 40 1011.5
20260506171039 23 0.0 1.6 0.00 0.00 0.00 38 1011.6
20260506170037 23 0.0 3.2 0.00 0.00 0.00 36 1011.5
20260506165035 24 225 1.6 3.2 0.00 0.00 0.00 35 1011.5
20260506164033 24 199 1.6 3.2 0.00 0.00 0.00 34 1011.4
20260506163030 25 198 3.2 8.0 0.00 0.00 0.00 33 1011.6
20260506162028 25 209 1.6 6.4 0.00 0.00 0.00 33 1011.5
20260506161026 25 184 4.8 11.3 0.00 0.00 0.00 33 1011.5
20260506160045 25 200 4.8 11.3 0.00 0.00 0.00 33 1011.6
20260506155022 25 214 3.2 6.4 0.00 0.00 0.00 32 1011.7
20260506154020 26 225 1.6 8.0 0.00 0.00 0.00 32 1011.8
20260506153018 26 178 4.8 12.9 0.00 0.00 0.00 31 1011.8
20260506152036 27 227 4.8 12.9 0.00 0.00 0.00 28 1011.9
20260506151114 27 231 3.2 6.4 0.00 0.00 0.00 30 1011.9
20260506150111 27 196 3.2 6.4 0.00 0.00 0.00 30 1012.1
20260506145109 27 195 3.2 6.4 0.00 0.00 0.00 27 1012.1
20260506144108 27 157 6.4 9.7 0.00 0.00 0.00 27 1012.3
20260506143105 27 211 6.4 11.3 0.00 0.00 0.00 27 1012.3
20260506142103 28 187 6.4 11.3 0.00 0.00 0.00 26 1012.3
20260506141101 28 225 3.2 6.4 0.00 0.00 0.00 26 1012.3
20260506140059 28 202 4.8 12.9 0.00 0.00 0.00 25 1012.4
20260506135057 28 230 8.0 22.5 0.00 0.00 0.00 25 1012.4
20260506134055 28 257 6.4 11.3 0.00 0.00 0.00 25 1012.5
20260506133052 28 246 6.4 16.1 0.00 0.00 0.00 26 1012.7
20260506132051 28 237 6.4 17.7 0.00 0.00 0.00 24 1012.7
20260506131048 29 210 4.8 9.7 0.00 0.00 0.00 26 1012.8
20260506130046 29 210 4.8 8.0 0.00 0.00 0.00 27 1012.8
20260506125044 28 271 4.8 9.7 0.00 0.00 0.00 28 1012.9
20260506124042 28 208 6.4 11.3 0.00 0.00 0.00 26 1013.1
20260506123100 28 264 3.2 6.4 0.00 0.00 0.00 27 1013.3
20260506122038 27 114 3.2 12.9 0.00 0.00 0.00 31 1013.2
20260506121036 27 198 4.8 12.9 0.00 0.00 0.00 29 1013.4
20260506120033 27 207 4.8 12.9 0.00 0.00 0.00 31 1013.4
20260506115032 27 214 4.8 12.9 0.00 0.00 0.00 32 1013.5
20260506114030 26 185 8.0 17.7 0.00 0.00 0.00 31 1013.8
20260506113027 27 186 4.8 9.7 0.00 0.00 0.00 30 1013.8
20260506112025 26 158 6.4 12.9 0.00 0.00 0.00 32 1013.8
20260506111023 27 187 6.4 14.5 0.00 0.00 0.00 30 1013.9
20260506110021 27 169 4.8 9.7 0.00 0.00 0.00 30 1013.9
20260506105019 27 213 6.4 14.5 0.00 0.00 0.00 30 1013.9
20260506104037 27 233 3.2 8.0 0.00 0.00 0.00 32 1014.1
20260506103015 26 210 4.8 12.9 0.00 0.00 0.00 34 1014.1
20260506102113 26 192 4.8 11.3 0.00 0.00 0.00 33 1014.2
20260506101111 26 175 8.0 24.1 0.00 0.00 0.00 34 1014.2
20260506100109 26 192 4.8 17.7 0.00 0.00 0.00 34 1014.3
20260506095107 26 192 6.4 16.1 0.00 0.00 0.00 35 1014.4
20260506094124 26 215 8.0 12.9 0.00 0.00 0.00 34 1014.5
20260506093122 26 146 6.4 11.3 0.00 0.00 0.00 36 1014.5
20260506092100 25 178 4.8 9.7 0.00 0.00 0.00 35 1014.6
20260506091058 25 268 4.8 11.3 0.00 0.00 0.00 34 1014.7
20260506090056 25 155 6.4 11.3 0.00 0.00 0.00 36 1014.7
20260506085054 25 263 6.4 12.9 0.00 0.00 0.00 36 1014.7
20260506084052 25 218 6.4 9.7 0.00 0.00 0.00 36 1014.6
20260506083049 24 225 4.8 9.7 0.00 0.00 0.00 37 1014.5
20260506082047 24 249 4.8 9.7 0.00 0.00 0.00 37 1014.6
20260506081045 24 206 6.4 14.5 0.00 0.00 0.00 37 1014.6
20260506080103 23 225 4.8 17.7 0.00 0.00 0.00 37 1014.6
20260506073037 22 237 6.4 11.3 0.00 0.00 0.00 40 1014.6
20260506072035 22 246 3.2 8.0 0.00 0.00 0.00 41 1014.7
20260506071053 22 249 4.8 11.3 0.00 0.00 0.00 44 1014.7